Weather History for McCall, ID

Change the Weather History Date:

Thursday, January 30, 2014

  Actual Average Record
Temperature  
Mean Temperature 21 °F 20 °F  
Max Temperature 34 °F 30 °F 45 °F (1935)
Min Temperature 8 °F 11 °F -20 °F (1951)
Degree Days  
Heating Degree Days 44 44  
Month to date heating degree days 1296 1357  
Since 1 July heating degree days 4842 5431  
Cooling Degree Days 0 0  
Month to date cooling degree days 0 0  
Year to date cooling degree days 0 0  
Moisture  
Dew Point 21 °F    
Average Humidity 81    
Maximum Humidity 92    
Minimum Humidity 69    
Precipitation  
Precipitation 0.07 in 0.06 in 0.87 in (1939)
Month to date precipitation 1.62 1.68  
Year to date precipitation 1.62 1.68  
Sea Level Pressure  
Sea Level Pressure 29.78 in    
Wind  
Wind Speed 3 mph (North)    
Max Wind Speed 13 mph    
Max Gust Speed 16 mph    
Visibility 7 miles    
Events Fog , Snow    
T = Trace of Precipitation, MM = Missing Value Source: NWS Daily Summary

Daily Weather History Graph

Daily Weather History Graph

Search for Another Location

Airport:

Trip Planner

Search our weather history database for the weather conditions in past years. The results will help you decide how hot, cold, wet, or windy it might be!

Date:

Astronomy

Jan. 30, 2014 Rise Set
Actual Time 8:06 AM MST 5:49 PM MST
Civil Twilight 7:34 AM MST 6:21 PM MST
Nautical Twilight 6:59 AM MST 6:56 PM MST
Astronomical Twilight 6:25 AM MST 7:30 PM MST
Moon 7:33 AM MST (1/30) 6:10 PM MST (1/30)
Length of Visible Light 10h 46m
Length of Day
9h 43m
Waning Crescent, 0% of the Moon is Illuminated
Jan 30
Waning Crescent
Jan 30
New
Feb 6
First Quarter
Feb 14
Full
Feb 22
Last Quarter

Hourly Weather History & Observations

Time (MST) Temp. Windchill Dew Point Humidity Pressure Visibility Wind Dir Wind Speed Gust Speed Precip Events Conditions
12:51 AM 30.9 °F - 25.0 °F 79% 29.75 in 10.0 mi Calm Calm - N/A   Overcast
1:51 AM 30.0 °F 25.2 °F 26.1 °F 85% 29.76 in 10.0 mi NE 4.6 mph - N/A   Overcast
2:51 AM 28.9 °F 25.2 °F 26.1 °F 89% 29.76 in 9.0 mi West 3.5 mph - 0.00 in   Overcast
3:51 AM 28.9 °F 23.9 °F 26.1 °F 89% 29.77 in 10.0 mi NNW 4.6 mph - N/A   Overcast
4:51 AM 28.9 °F - 26.1 °F 89% 29.77 in 10.0 mi Calm Calm - 0.00 in   Overcast
5:05 AM 28.9 °F 25.2 °F 26.1 °F 89% 29.70 in 1.8 mi NNW 3.5 mph - 0.00 in Snow Light Snow
5:24 AM 28.9 °F 25.2 °F 26.1 °F 89% 29.70 in 2.0 mi NE 3.5 mph - 0.00 in Snow Light Snow
5:45 AM 28.9 °F 25.2 °F 26.1 °F 89% 29.70 in 1.8 mi North 3.5 mph - 0.01 in Snow Light Snow
5:51 AM 28.9 °F - 26.1 °F 89% 29.78 in 2.0 mi Calm Calm - 0.01 in Snow Light Snow
6:04 AM 28.9 °F - 26.1 °F 89% 29.71 in 1.2 mi Calm Calm - 0.01 in Snow Light Snow
6:13 AM 28.9 °F 25.2 °F 26.1 °F 89% 29.71 in 1.0 mi NE 3.5 mph - 0.02 in Snow Light Snow
6:51 AM 28.9 °F 25.2 °F 26.1 °F 89% 29.79 in 1.8 mi NNE 3.5 mph - 0.05 in Snow Light Snow
7:27 AM 28.0 °F - 26.1 °F 92% 29.70 in 3.0 mi Calm Calm - 0.01 in Snow Light Snow
7:39 AM 28.0 °F - 26.1 °F 92% 29.71 in 9.0 mi Calm Calm - 0.01 in   Overcast
7:51 AM 28.0 °F - 26.1 °F 92% 29.78 in 9.0 mi Calm Calm - 0.01 in   Overcast
8:51 AM 28.0 °F - 25.0 °F 88% 29.79 in 10.0 mi Calm Calm - N/A   Overcast
9:05 AM 27.0 °F - 25.0 °F 92% 29.73 in 10.0 mi Calm Calm - N/A   Overcast
9:15 AM 28.0 °F - 25.0 °F 88% 29.73 in 10.0 mi Calm Calm - N/A   Overcast
9:51 AM 28.9 °F 23.9 °F 24.1 °F 82% 29.80 in 10.0 mi North 4.6 mph - N/A   Scattered Clouds
10:18 AM 30.9 °F 26.2 °F 24.1 °F 76% 29.74 in 10.0 mi NNE 4.6 mph - N/A   Mostly Cloudy
10:51 AM 30.0 °F 26.5 °F 25.0 °F 82% 29.81 in 10.0 mi Variable 3.5 mph - N/A   Overcast
11:14 AM 30.9 °F - 25.0 °F 79% 29.75 in 10.0 mi Calm Calm - N/A   Overcast
11:51 AM 32.0 °F - 25.0 °F 75% 29.81 in 10.0 mi Calm Calm - N/A   Overcast
12:51 PM 32.0 °F - 24.1 °F 73% 29.78 in 10.0 mi Calm Calm - N/A   Overcast
12:59 PM 33.1 °F - 24.1 °F 70% 29.73 in 10.0 mi Calm Calm - N/A   Overcast
1:32 PM 30.9 °F 24.3 °F 25.0 °F 79% 29.73 in 10.0 mi West 6.9 mph - 0.00 in   Overcast
1:39 PM 30.9 °F 25.2 °F 25.0 °F 79% 29.73 in 10.0 mi WNW 5.8 mph - 0.00 in   Overcast
1:51 PM 30.9 °F 26.2 °F 25.0 °F 79% 29.78 in 10.0 mi WNW 4.6 mph - 0.00 in   Overcast
2:51 PM 30.9 °F 23.5 °F 23.0 °F 72% 29.78 in 10.0 mi WNW 8.1 mph - N/A   Overcast
3:39 PM 30.0 °F 22.4 °F 23.0 °F 75% 29.72 in 10.0 mi NW 8.1 mph - N/A   Mostly Cloudy
3:51 PM 28.9 °F 19.8 °F 21.9 °F 75% 29.79 in 10.0 mi NW 10.4 mph - N/A   Partly Cloudy
4:51 PM 28.0 °F 20.0 °F 19.9 °F 72% 29.81 in 10.0 mi WNW 8.1 mph - N/A   Clear
5:51 PM 25.0 °F 20.7 °F 19.9 °F 81% 29.83 in 10.0 mi WSW 3.5 mph - N/A   Mostly Cloudy
6:51 PM 21.0 °F 16.2 °F 17.1 °F 85% 29.86 in 10.0 mi East 3.5 mph - N/A   Scattered Clouds
7:51 PM 17.1 °F 10.0 °F 14.0 °F 88% 29.88 in 10.0 mi ENE 4.6 mph - N/A   Clear
8:38 PM 18.0 °F 12.7 °F 15.1 °F 88% 29.77 in 7.0 mi North 3.5 mph - N/A   Mostly Cloudy
8:51 PM 17.1 °F 11.7 °F 14.0 °F 88% 29.89 in 5.0 mi North 3.5 mph - N/A   Overcast
9:27 PM 15.1 °F - 12.9 °F 91% 29.78 in 1.5 mi Calm Calm - N/A   Overcast
9:32 PM 15.1 °F - 12.0 °F 88% 29.78 in 0.8 mi Calm Calm - N/A   Overcast
9:51 PM 15.1 °F - 10.9 °F 84% 29.91 in 0.5 mi Calm Calm - N/A Fog Light Freezing Fog
9:55 PM 16.0 °F 10.4 °F 12.0 °F 84% 29.78 in 1.5 mi NNE 3.5 mph - N/A   Partly Cloudy
9:57 PM 16.0 °F 10.4 °F 12.0 °F 84% 29.78 in 3.0 mi NNE 3.5 mph - N/A   Partly Cloudy
10:31 PM 10.0 °F - 7.0 °F 87% 29.78 in 2.5 mi Calm Calm - N/A   Clear
10:38 PM 10.9 °F - 6.1 °F 81% 29.79 in 8.0 mi Calm Calm - N/A   Clear
10:51 PM 10.0 °F - 6.1 °F 84% 29.93 in 7.0 mi Calm Calm - N/A   Clear
11:24 PM 12.0 °F - 8.1 °F 84% 29.78 in 10.0 mi Calm Calm - N/A   Partly Cloudy
11:51 PM 10.0 °F 3.6 °F 5.0 °F 80% 29.92 in 10.0 mi East 3.5 mph - N/A   Scattered Clouds